This is the latest recevied weather packets stored in our database for station/object WB3IGR. If no packets are shown the sender has not sent any weather packets the latest 10 day(s).
| Time | Temp. | Humidity | Pressure | Rain* | Wind** | Luminosity | Snow |
|---|---|---|---|---|---|---|---|
| 1777517666 | 8.89° C | 99% | 1010 hPa | 0 mm | - | 0 W/m² | - |
| 1777517362 | 8.89° C | 99% | 1009.8 hPa | 0 mm | - | 0 W/m² | - |
| 1777517062 | 8.89° C | 99% | 1010.2 hPa | 0 mm | - | 0 W/m² | - |
| 1777516759 | 8.89° C | 99% | 1010 hPa | 1.27 mm | - | 0 W/m² | - |
| 1777516455 | 8.89° C | 99% | 1010.1 hPa | 1.27 mm | - | 0 W/m² | - |
| 1777516150 | 8.89° C | 99% | 1010.4 hPa | 1.78 mm | - | 0 W/m² | - |
| 1777515848 | 8.89° C | 99% | 1010.7 hPa | 6.6 mm | - | 0 W/m² | - |
| 1777515544 | 8.89° C | 99% | 1010.9 hPa | 10.67 mm | - | 0 W/m² | - |
| 1777515242 | 8.89° C | 99% | 1011.4 hPa | 11.94 mm | - | 0 W/m² | - |
| 1777514937 | 8.89° C | 99% | 1011.5 hPa | 10.67 mm | - | 0 W/m² | - |
| 1777514634 | 8.89° C | 99% | 1011.2 hPa | 9.65 mm | - | 0 W/m² | - |
| 1777514331 | 9.44° C | 99% | 1011.7 hPa | 10.67 mm | - | 0 W/m² | - |
| 1777514028 | 9.44° C | 99% | 1010.7 hPa | 13.21 mm | - | 0 W/m² | - |
| 1777513725 | 9.44° C | 99% | 1010.7 hPa | 8.89 mm | - | 0 W/m² | - |
| 1777513422 | 9.44° C | 99% | 1010.6 hPa | 6.6 mm | - | 0 W/m² | - |
| 1777513118 | 9.44° C | 99% | 1010.2 hPa | 4.83 mm | - | 0 W/m² | - |
| 1777512814 | 9.44° C | 99% | 1010.2 hPa | 0 mm | - | 0 W/m² | - |
| 1777512511 | 9.44° C | 99% | 1010.2 hPa | 0 mm | - | 0 W/m² | - |
| 1777512208 | 9.44° C | 99% | 1010 hPa | 0 mm | - | 0 W/m² | - |
| 1777511905 | 9.44° C | 99% | 1010 hPa | 0 mm | - | 0 W/m² | - |
| 1777511603 | 9.44° C | 99% | 1010.3 hPa | 0 mm | - | 0 W/m² | - |
| 1777511301 | 9.44° C | 99% | 1010.1 hPa | 0 mm | - | 0 W/m² | - |
| 1777510996 | 9.44° C | 99% | 1009.8 hPa | 0 mm | - | 0 W/m² | - |
| 1777510693 | 9.44° C | 98% | 1009.9 hPa | 0 mm | - | 0 W/m² | - |
| 1777510389 | 9.44° C | 98% | 1009.6 hPa | 3.05 mm | - | 0 W/m² | - |
* Rain latest hour (hover to see other rain measurements)
** Current wind speed in m/s (hover to see current wind gust speed)